Showing default

UNISAT 6, 40012

Orbit data source: Space-Track

UNISAT 6, 40012 is a payload satellite owned by GAUSS SrI (IT) in SSO that was launched on Thu, 19 Jun 2014 UTC via a DNEPR launch vehicle from the Orenburg, Russia (OREN). Payloads include a variety of satellites, spacecraft, and rockets equipped with specific instruments for various scientific and technological missions. These include communications satellites like Starlink; space stations such as the ISS; scientific satellites like the Hubble; Earth observation satellites from companies like Planet Labs, Umbra, and HawkEye 360; GPS; miniature CubeSats for education and research; and military/defense satellites.

Loading next visibility...
UNISAT 6 details
Identifier
40012, 2014-033C
Orbit
SSO
Last TLE update17 hours ago
Origin
Flag of ITGAUSS SrI (IT)
ManufacturerGAUSS SrI
MissionOperational Amateur Technology
Bus & MotorUNISAT, Unknown motor
Mass26 kg wet, ~19 kg dry
Launch date (UTC)
2014-06-19 (10 years ago)
Launch vehicle
DNEPR
Launch site
Orenburg, Russia (OREN)
Object type
Payload
Rocket body
Debris
Shape & HBRBox + 4 Pan, 0.9 m
Radar Cross Section0.238 m², Medium (>0.1 m² and < 1m²)

Expand to show TLE details & history

TLE from 17 hours ago
0 UNISAT 6
1 40012U 14033C   24339.72120415  .00008152  00000-0  99150-3 0  9994
2 40012  97.7189 135.7088 0051009 107.7366 252.9425 14.82773872563087
Epoch: 2024-12-04T17:18Z
Definitive object data (Epoch: 2024-12-04T17:18:32.038Z)
Latitude0.00002°
Longitude162.06301°
Altitude634.253 km
Speed7.535 km/s
True Right ascension09h 02m 50s
True Declination0° 00' 00"
Sunlit
Object was in daylight at TLE epoch
Visualization TLE readout
Latitude74.60155°
Longitude12.03745°
Altitude597.634 km
Speed7.587 km/s
Apparent Right ascension20h 45m 39s
Apparent Declination22° 36' 38"
Sunlit
Object is in daylight
Visualization observer readout
Local Sidereal Time07:56:20
Azimuth347.285° N
Elevation-26.424°
Doppler factor1
Orbital elements
Apogee altitude653.296 km
Perigee altitude581.926 km
Semi-major axis6,995.748 km
Eccentricity0.0051009
Inclination97.7189°
RAAN135.7088°
Arg. of periapsis107.7366°
True anomaly252.38474°
Mean anomaly252.9425°
Eccentric anomaly252.66352°
Mean motion3.7093 °/min
BSTAR0.0009915
Orbital period97.05 mins
Loading maneuver chart data...
Loading historical data...
Loading historical data...
Loading historical data...
Loading historical data...
Loading historical data...
Loading historical data...
Loading historical data...

UNISAT 6 Visibility forecast

Observer location: undefined°, undefined

Span
Click to sort rows by Start time (UTC) header in descending order
Start Az.
Max El. time (UTC)
Max El. Az.
Max El.
End time (UTC)
End Az.
6 mins2024-12-05 11:15:01.385Z204.401° SW2024-12-05 11:18:01.385Z264.366° W28.627°2024-12-05 11:21:01.385Z322.215° NNW
6 mins2024-12-05 23:03:01.385Z39.015° NE2024-12-05 23:05:01.385Z85.187° E32.946°2024-12-05 23:09:01.385Z168.53° S
|